Tracking 30995 objects as of 5-Jul-2025
HD Live streaming from Space Station
objects crossing your sky now

SL-16 R/B

Track SL-16 R/B now!
10-day predictions
SL-16 R/B is classified as:


NORAD ID: 19120
Int'l Code: 1988-039B
Perigee: 818.1 km
Apogee: 849.8 km
Inclination: 71.0 °
Period: 101.4 minutes
Semi major axis: 7204 km
RCS: 10.673 m2 (large)
Launch date: May 15, 1988
Source: Commonwealth of Independent States (former USSR) (CIS)
Launch site: TYURATAM MISSILE AND SPACE COMPLEX (TTMTR)

Note: This is a ROCKET BODY
Your satellite tracking list
Your tracking list is empty




NASA's NSSDC Master Catalog

Two Line Element Set (TLE):
1 19120U 88039B   25186.22855462  .00000146  00000-0  92008-4 0  9991
2 19120  71.0132 231.7789 0022046 353.7051   6.3793 14.19566141923532
Source of the keplerian elements: AFSPC